Beatrice, NE

10:02 PM CST on November 17, 2017 (GMT -0600)
Beatrice Municipal

Weather History for KBIE - November, 2013

Change the Weather History Date:

Monday, November 4, 2013

  Actual Average Record
Temperature  
Mean Temperature 48 °F -  
Max Temperature 57 °F 56 °F 78 °F (1978)
Min Temperature 39 °F 32 °F 14 °F (1951)
Degree Days  
Heating Degree Days 17    
Moisture  
Dew Point 39 °F    
Average Humidity 66    
Maximum Humidity 83    
Minimum Humidity 46    
Precipitation  
Precipitation 0.00 in - - ()
Sea Level Pressure  
Sea Level Pressure 29.94 in    
Wind  
Wind Speed 11 mph (East)    
Max Wind Speed 17 mph    
Max Gust Speed 25 mph    
Visibility 10 miles    
Events      
Averages and records for this station are not official NWS values.
T = Trace of Precipitation, MM = Missing Value Source: NWS Daily Summary

Daily Weather History Graph

Daily Weather History Graph

Search for Another Location

Airport or City:

Trip Planner

Search our weather history database for the weather conditions in past years. The results will help you decide how hot, cold, wet, or windy it might be!

Date:

Astronomy

Nov. 04, 2013 Rise Set
Actual Time 7:00 AM CST 5:20 PM CST
Civil Twilight 6:31 AM CST 5:48 PM CST
Nautical Twilight 5:59 AM CST 6:20 PM CST
Astronomical Twilight 5:27 AM CST 6:52 PM CST
Moon 8:12 AM CST (11/4) 6:25 PM CST (11/4)
Length of Visible Light 11h 16m
Length of Day
10h 19m
New Moon, 2% of the Moon is Illuminated
Nov 4
New Moon
Nov 9
First Quarter
Nov 17
Full
Nov 25
Last Quarter
Dec 2
New

Hourly Weather History & Observations

Time (CST) Temp. Windchill Dew Point Humidity Pressure Visibility Wind Dir Wind Speed Gust Speed Precip Events Conditions
12:15 AM 53.6 °F - 37.0 °F 53% 29.77 in 10.0 mi SSE 12.7 mph 20.7 mph N/A   Mostly Cloudy
12:55 AM 53.1 °F - 37.6 °F 56% 29.77 in 10.0 mi South 11.5 mph - N/A   Scattered Clouds
1:15 AM 53.1 °F - 37.6 °F 56% 29.77 in 10.0 mi South 13.8 mph 18.4 mph N/A   Clear
1:35 AM 53.1 °F - 37.9 °F 57% 29.77 in 10.0 mi South 12.7 mph - N/A   Mostly Cloudy
1:55 AM 52.7 °F - 38.1 °F 58% 29.76 in 10.0 mi South 17.3 mph 25.3 mph N/A   Mostly Cloudy
2:15 AM 52.3 °F - 38.3 °F 59% 29.77 in 10.0 mi South 12.7 mph - N/A   Mostly Cloudy
2:35 AM 52.0 °F - 38.7 °F 60% 29.76 in 10.0 mi South 13.8 mph 17.3 mph N/A   Mostly Cloudy
2:55 AM 51.8 °F - 39.2 °F 62% 29.76 in 10.0 mi South 9.2 mph - N/A   Scattered Clouds
3:15 AM 52.0 °F - 39.4 °F 62% 29.77 in 10.0 mi South 11.5 mph 17.3 mph N/A   Scattered Clouds
3:35 AM 52.0 °F - 39.6 °F 63% 29.78 in 10.0 mi South 9.2 mph - N/A   Clear
3:55 AM 52.5 °F - 40.1 °F 63% 29.77 in 10.0 mi South 16.1 mph 23.0 mph N/A   Scattered Clouds
4:15 AM 52.7 °F - 40.1 °F 62% 29.76 in 10.0 mi South 12.7 mph - N/A   Scattered Clouds
4:35 AM 52.0 °F - 40.3 °F 64% 29.77 in 10.0 mi South 15.0 mph 19.6 mph N/A   Scattered Clouds
4:55 AM 51.3 °F - 40.3 °F 66% 29.77 in 10.0 mi South 13.8 mph 19.6 mph N/A   Scattered Clouds
5:15 AM 50.2 °F - 40.5 °F 69% 29.78 in 10.0 mi South 15.0 mph - N/A   Clear
5:35 AM 50.4 °F - 40.6 °F 69% 29.78 in 10.0 mi South 11.5 mph 18.4 mph N/A   Clear
5:55 AM 49.6 °F - 41.0 °F 72% 29.78 in 10.0 mi South 12.7 mph 16.1 mph N/A   Clear
6:15 AM 49.1 °F - 41.0 °F 74% 29.79 in 10.0 mi South 11.5 mph 16.1 mph N/A   Clear
6:35 AM 48.7 °F - 41.0 °F 75% 29.80 in 10.0 mi South 10.4 mph 16.1 mph N/A   Clear
6:55 AM 48.2 °F - 41.2 °F 77% 29.80 in 10.0 mi South 10.4 mph - N/A   Clear
7:15 AM 47.3 °F - 41.2 °F 79% 29.80 in 10.0 mi SSE 6.9 mph - N/A   Clear
7:35 AM 46.8 °F - 41.2 °F 81% 29.82 in 10.0 mi SSE 6.9 mph - N/A   Clear
7:55 AM 47.7 °F - 41.9 °F 80% 29.84 in 10.0 mi SSE 5.8 mph - N/A   Scattered Clouds
8:15 AM 49.6 °F - 42.8 °F 77% 29.85 in 10.0 mi South 8.1 mph - N/A   Mostly Cloudy
8:35 AM 50.0 °F - 43.0 °F 77% 29.86 in 10.0 mi South 9.2 mph - N/A   Overcast
8:55 AM 50.9 °F - 43.5 °F 76% 29.88 in 10.0 mi SSW 9.2 mph - N/A   Overcast
9:15 AM 51.8 °F - 43.7 °F 74% 29.88 in 10.0 mi SW 6.9 mph - N/A   Overcast
9:35 AM 52.0 °F - 43.7 °F 73% 29.90 in 10.0 mi SW 9.2 mph - N/A   Overcast
10:15 AM 52.7 °F - 43.9 °F 72% 29.92 in 10.0 mi West 9.2 mph - N/A   Overcast
10:35 AM 53.4 °F - 43.7 °F 70% 29.93 in 10.0 mi WNW 5.8 mph - N/A   Mostly Cloudy
10:55 AM 54.3 °F - 42.8 °F 65% 29.95 in 10.0 mi WNW 12.7 mph 17.3 mph N/A   Scattered Clouds
11:15 AM 55.0 °F - 42.4 °F 63% 29.95 in 10.0 mi NW 12.7 mph 18.4 mph N/A   Clear
11:35 AM 54.5 °F - 40.6 °F 60% 29.96 in 10.0 mi NNW 13.8 mph 18.4 mph N/A   Clear
11:55 AM 55.6 °F - 40.6 °F 57% 29.96 in 10.0 mi North 15.0 mph 18.4 mph N/A   Clear
12:15 PM 56.3 °F - 39.7 °F 54% 29.96 in 10.0 mi North 12.7 mph 19.6 mph N/A   Clear
12:35 PM 56.3 °F - 38.1 °F 51% 29.96 in 10.0 mi North 16.1 mph 20.7 mph N/A   Clear
12:55 PM 57.2 °F - 38.1 °F 49% 29.97 in 10.0 mi NNE 12.7 mph 20.7 mph N/A   Clear
1:15 PM 57.4 °F - 37.9 °F 48% 29.98 in 10.0 mi North 15.0 mph 21.9 mph N/A   Clear
1:35 PM 57.7 °F - 37.6 °F 47% 29.97 in 10.0 mi North 13.8 mph 18.4 mph N/A   Clear
1:55 PM 57.0 °F - 36.7 °F 47% 29.98 in 10.0 mi North 13.8 mph - N/A   Clear
2:15 PM 57.4 °F - 36.7 °F 46% 29.98 in 10.0 mi North 16.1 mph - N/A   Clear
2:35 PM 57.2 °F - 36.3 °F 46% 29.99 in 10.0 mi NNE 15.0 mph 19.6 mph N/A   Clear
2:55 PM 56.8 °F - 36.9 °F 47% 30.00 in 10.0 mi North 15.0 mph - N/A   Clear
3:15 PM 56.7 °F - 37.4 °F 49% 30.01 in 10.0 mi North 13.8 mph 19.6 mph N/A   Clear
3:35 PM 55.9 °F - 36.7 °F 48% 30.02 in 10.0 mi North 11.5 mph - N/A   Clear
3:55 PM 55.6 °F - 37.2 °F 50% 30.02 in 10.0 mi NNE 11.5 mph - N/A   Clear
4:15 PM 55.2 °F - 37.4 °F 51% 30.03 in 10.0 mi NNE 10.4 mph - N/A   Clear
4:35 PM 54.1 °F - 37.0 °F 52% 30.03 in 10.0 mi NNE 8.1 mph - N/A   Clear
4:55 PM 52.7 °F - 37.0 °F 55% 30.03 in 10.0 mi NE 8.1 mph - N/A   Clear
5:15 PM 50.9 °F - 36.9 °F 59% 30.04 in 10.0 mi NE 5.8 mph - N/A   Clear
5:35 PM 50.5 °F - 36.7 °F 59% 30.04 in 10.0 mi NE 6.9 mph - N/A   Clear
5:55 PM 47.7 °F - 36.5 °F 65% 30.05 in 10.0 mi NNE 3.5 mph - N/A   Clear
6:15 PM 45.5 °F 44.2 °F 36.1 °F 70% 30.06 in 10.0 mi NE 3.5 mph - N/A   Clear
6:35 PM 46.4 °F - 36.1 °F 67% 30.07 in 10.0 mi Calm Calm - N/A   Clear
6:55 PM 44.8 °F 42.4 °F 35.8 °F 71% 30.08 in 10.0 mi NE 4.6 mph - N/A   Clear
7:15 PM 45.0 °F 43.5 °F 36.0 °F 71% 30.09 in 7.0 mi NE 3.5 mph - N/A   Clear
7:35 PM 43.0 °F 40.3 °F 35.6 °F 75% 30.09 in 5.0 mi NE 4.6 mph - N/A   Haze
7:55 PM 39.2 °F 35.9 °F 34.3 °F 83% 30.10 in 10.0 mi NNE 4.6 mph - N/A   Clear
8:15 PM 41.2 °F 37.3 °F 35.6 °F 81% 30.09 in 10.0 mi NE 5.8 mph - N/A   Clear
8:35 PM 41.2 °F 38.2 °F 36.1 °F 82% 30.10 in 2.5 mi NNE 4.6 mph - N/A   Haze
8:55 PM 43.2 °F - 37.0 °F 79% 30.11 in 5.0 mi Calm Calm - N/A   Haze
9:15 PM 43.7 °F - 37.4 °F 78% 30.12 in 10.0 mi Calm Calm - N/A   Overcast
9:35 PM 43.3 °F 41.7 °F 38.1 °F 82% 30.11 in 10.0 mi North 3.5 mph - N/A   Mostly Cloudy
9:55 PM 43.2 °F - 37.0 °F 79% 30.11 in 10.0 mi Calm Calm - N/A   Scattered Clouds
10:15 PM 42.8 °F 40.1 °F 37.0 °F 80% 30.11 in 10.0 mi NE 4.6 mph - N/A   Clear
10:35 PM 42.3 °F 39.4 °F 37.0 °F 82% 30.11 in 10.0 mi ENE 4.6 mph - N/A   Clear
10:55 PM 42.4 °F 40.7 °F 36.5 °F 79% 30.11 in 10.0 mi ENE 3.5 mph - N/A   Clear
11:15 PM 42.3 °F 40.5 °F 36.7 °F 81% 30.11 in 10.0 mi NE 3.5 mph - N/A   Scattered Clouds
11:35 PM 43.3 °F 41.7 °F 37.6 °F 80% 30.11 in 10.0 mi NE 3.5 mph - N/A   Overcast
11:55 PM 43.2 °F 40.5 °F 38.3 °F 83% 30.11 in 10.0 mi ENE 4.6 mph - N/A   Overcast